Tracking 19832 objects as of 25-Aug-2019
HD Live streaming from Space Station
objects crossing your sky now

FENGYUN 1C DEB

Track FENGYUN 1C DEB now!
10-day predictions


NORAD ID: 31887
Int'l Code: 1999-025CKN
Perigee: 760.1 km
Apogee: 810.3 km
Inclination: 99.5 °
Period: 100.4 minutes
Semi major axis: 7156 km
RCS: 0.0075 m2 (small)
Launch date: May 10, 1999
Source: People's Republic of China (PRC)
Launch site: Taiyaun Space Center, China (TSC)

Note: This is SATELLITE DEBRIS
aabbcc
Your satellite tracking list
Your tracking list is empty




NASA's NSSDC Master Catalog

Two Line Element Set (TLE):
1 31887U 99025CKN 19236.51979442  .00000274  00000-0  11612-3 0  9991
2 31887  99.5335 353.7422 0035073 180.2124 179.9048 14.34087209635386
Source of the keplerian elements: AFSPC